Location: Tel Aviv
(32.0670°N, 34.7670°E)
Time: 19:33:41
(UTC+03:00)

Vanguard 2 Rocket - Pass Details

Date: 23 January 2022
Orbit: 553 x 3323 km, 32.9° (Epoch: 24 May)

Event Time Altitude Azimuth Distance (km) Brightness Sun altitude
Exits shadow 05:14:37 21° 277° (W) 5,192 10.1 -18.0°
Maximum altitude 05:30:47 90° 5° (N) 3,280 9.6 -14.7°
Drops below altitude 10° 05:48:37 10° 101° (E) 5,350 12.4 -11.0°
Sets 05:52:06 0° 102° (ESE) 6,076 13.4 -10.3°
